Year,Month,Day,Hour,Minute,Value (Times are PST for temperature in C)
2004,04,08,00,00,9.70
2004,04,08,00,01,9.70
2004,04,08,00,02,9.70
2004,04,08,00,03,9.80
2004,04,08,00,04,9.80
2004,04,08,00,05,9.80
2004,04,08,00,06,9.70
2004,04,08,00,07,9.90
2004,04,08,00,08,9.80
2004,04,08,00,09,9.90
2004,04,08,00,10,9.90
2004,04,08,00,11,9.90
2004,04,08,00,12,9.90
2004,04,08,00,13,9.90
2004,04,08,00,14,9.90
2004,04,08,00,15,9.90
2004,04,08,00,16,9.90
2004,04,08,00,17,9.80
2004,04,08,00,18,9.70
2004,04,08,00,19,9.60
2004,04,08,00,20,9.50
2004,04,08,00,21,9.40
2004,04,08,00,22,9.20
2004,04,08,00,23,9.10
2004,04,08,00,24,9.00
2004,04,08,00,25,9.00
2004,04,08,00,26,8.90
2004,04,08,00,27,9.00
2004,04,08,00,28,8.90
2004,04,08,00,29,8.90
2004,04,08,00,30,8.90
2004,04,08,00,31,8.90
2004,04,08,00,32,8.80
2004,04,08,00,33,8.70
2004,04,08,00,34,8.70
2004,04,08,00,35,8.70
2004,04,08,00,36,8.70
2004,04,08,00,37,8.70
2004,04,08,00,38,8.70
2004,04,08,00,39,8.70
2004,04,08,00,40,8.70
2004,04,08,00,41,8.70
2004,04,08,00,42,8.70
2004,04,08,00,43,8.70
2004,04,08,00,44,8.70
2004,04,08,00,45,8.70
2004,04,08,00,46,8.70
2004,04,08,00,47,8.70
2004,04,08,00,48,8.80
2004,04,08,00,49,8.70
2004,04,08,00,50,8.80
2004,04,08,00,51,8.70
2004,04,08,00,52,8.70
2004,04,08,00,53,8.70
2004,04,08,00,54,8.70
2004,04,08,00,55,8.60
2004,04,08,00,56,8.60
2004,04,08,00,57,8.60
2004,04,08,00,58,8.70
2004,04,08,00,59,8.60
2004,04,08,01,00,8.60
2004,04,08,01,01,8.60
2004,04,08,01,02,8.60
2004,04,08,01,03,8.70
2004,04,08,01,04,8.70
2004,04,08,01,05,8.70
2004,04,08,01,06,8.80
2004,04,08,01,07,8.80
2004,04,08,01,08,8.70
2004,04,08,01,09,8.70
2004,04,08,01,10,8.70
2004,04,08,01,11,8.70
2004,04,08,01,12,8.70
2004,04,08,01,13,8.80
2004,04,08,01,14,8.90
2004,04,08,01,15,9.00
2004,04,08,01,16,9.00
2004,04,08,01,17,9.10
2004,04,08,01,18,9.20
2004,04,08,01,19,9.20
2004,04,08,01,20,9.20
2004,04,08,01,21,9.30
2004,04,08,01,22,9.30
2004,04,08,01,23,9.30
2004,04,08,01,24,9.30
2004,04,08,01,25,9.30
2004,04,08,01,26,9.20
2004,04,08,01,27,9.20
2004,04,08,01,28,9.10
2004,04,08,01,29,9.00
2004,04,08,01,30,9.10
2004,04,08,01,31,9.10
2004,04,08,01,32,9.10
2004,04,08,01,33,9.10
2004,04,08,01,34,9.10
2004,04,08,01,35,9.00
2004,04,08,01,36,9.00
2004,04,08,01,37,8.90
2004,04,08,01,38,9.00
2004,04,08,01,39,9.00
2004,04,08,01,40,9.00
2004,04,08,01,41,9.10
2004,04,08,01,42,9.10
2004,04,08,01,43,9.20
2004,04,08,01,44,9.20
2004,04,08,01,45,9.20
2004,04,08,01,46,9.20
2004,04,08,01,47,9.20
2004,04,08,01,48,9.20
2004,04,08,01,49,9.30
2004,04,08,01,50,9.30
2004,04,08,01,51,9.30
2004,04,08,01,52,9.30
2004,04,08,01,53,9.30
2004,04,08,01,54,9.30
2004,04,08,01,55,9.30
2004,04,08,01,56,9.30
2004,04,08,01,57,9.20
2004,04,08,01,58,9.10
2004,04,08,01,59,9.00
2004,04,08,02,00,8.90
2004,04,08,02,01,8.80
2004,04,08,02,02,8.80
2004,04,08,02,03,8.70
2004,04,08,02,04,8.70
2004,04,08,02,05,8.70
2004,04,08,02,06,8.70
2004,04,08,02,07,8.70
2004,04,08,02,08,8.70
2004,04,08,02,09,8.70
2004,04,08,02,10,8.60
2004,04,08,02,11,8.60
2004,04,08,02,12,8.60
2004,04,08,02,13,8.60
2004,04,08,02,14,8.60
2004,04,08,02,15,8.50
2004,04,08,02,16,8.50
2004,04,08,02,17,8.60
2004,04,08,02,18,8.60
2004,04,08,02,19,8.50
2004,04,08,02,20,8.40
2004,04,08,02,21,8.30
2004,04,08,02,22,8.30
2004,04,08,02,23,8.40
2004,04,08,02,24,8.40
2004,04,08,02,25,8.40
2004,04,08,02,26,8.40
2004,04,08,02,27,8.40
2004,04,08,02,28,8.40
2004,04,08,02,29,8.40
2004,04,08,02,30,8.40
2004,04,08,02,31,8.30
2004,04,08,02,32,8.30
2004,04,08,02,33,8.30
2004,04,08,02,34,8.30
2004,04,08,02,35,8.30
2004,04,08,02,36,8.30
2004,04,08,02,37,8.30
2004,04,08,02,38,8.20
2004,04,08,02,39,8.20
2004,04,08,02,40,8.20
2004,04,08,02,41,8.20
2004,04,08,02,42,8.20
2004,04,08,02,43,8.20
2004,04,08,02,44,8.20
2004,04,08,02,45,8.10
2004,04,08,02,46,8.10
2004,04,08,02,47,8.00
2004,04,08,02,48,7.90
2004,04,08,02,49,7.90
2004,04,08,02,50,7.90
2004,04,08,02,51,8.00
2004,04,08,02,52,8.00
2004,04,08,02,53,8.10
2004,04,08,02,54,8.10
2004,04,08,02,55,8.10
2004,04,08,02,56,8.10
2004,04,08,02,57,8.10
2004,04,08,02,58,8.20
2004,04,08,02,59,8.20
2004,04,08,03,00,8.20
2004,04,08,03,01,8.20
2004,04,08,03,02,8.20
2004,04,08,03,03,8.20
2004,04,08,03,04,8.20
2004,04,08,03,05,8.10
2004,04,08,03,06,8.00
2004,04,08,03,07,7.90
2004,04,08,03,08,7.80
2004,04,08,03,09,7.70
2004,04,08,03,10,7.80
2004,04,08,03,11,7.80
2004,04,08,03,12,7.80
2004,04,08,03,13,7.90
2004,04,08,03,14,7.90
2004,04,08,03,15,8.00
2004,04,08,03,16,7.90
2004,04,08,03,17,7.90
2004,04,08,03,18,7.80
2004,04,08,03,19,7.80
2004,04,08,03,20,7.80
2004,04,08,03,21,7.80
2004,04,08,03,22,7.70
2004,04,08,03,23,7.70
2004,04,08,03,24,7.60
2004,04,08,03,25,7.60
2004,04,08,03,26,7.50
2004,04,08,03,27,7.50
2004,04,08,03,28,7.40
2004,04,08,03,29,7.40
2004,04,08,03,30,7.30
2004,04,08,03,31,7.30
2004,04,08,03,32,7.30
2004,04,08,03,33,7.30
2004,04,08,03,34,7.30
2004,04,08,03,35,7.30
2004,04,08,03,36,7.30
2004,04,08,03,37,7.40
2004,04,08,03,38,7.40
2004,04,08,03,39,7.40
2004,04,08,03,40,7.50
2004,04,08,03,41,7.50
2004,04,08,03,42,7.40
2004,04,08,03,43,7.20
2004,04,08,03,44,7.10
2004,04,08,03,45,7.00
2004,04,08,03,46,6.90
2004,04,08,03,47,6.90
2004,04,08,03,48,6.90
2004,04,08,03,49,6.90
2004,04,08,03,50,7.00
2004,04,08,03,51,7.10
2004,04,08,03,52,7.10
2004,04,08,03,53,7.00
2004,04,08,03,54,7.00
2004,04,08,03,55,6.90
2004,04,08,03,56,6.80
2004,04,08,03,57,6.80
2004,04,08,03,58,6.80
2004,04,08,03,59,6.80
2004,04,08,04,00,6.80
2004,04,08,04,01,6.80
2004,04,08,04,02,6.90
2004,04,08,04,03,6.90
2004,04,08,04,04,6.90
2004,04,08,04,05,7.00
2004,04,08,04,06,7.00
2004,04,08,04,07,7.10
2004,04,08,04,08,7.20
2004,04,08,04,09,7.20
2004,04,08,04,10,7.20
2004,04,08,04,11,7.20
2004,04,08,04,12,7.20
2004,04,08,04,13,7.20
2004,04,08,04,14,7.30
2004,04,08,04,15,7.30
2004,04,08,04,16,7.20
2004,04,08,04,17,7.20
2004,04,08,04,18,7.20
2004,04,08,04,19,7.20
2004,04,08,04,20,7.30
2004,04,08,04,21,7.30
2004,04,08,04,22,7.30
2004,04,08,04,23,7.30
2004,04,08,04,24,7.30
2004,04,08,04,25,7.30
2004,04,08,04,26,7.30
2004,04,08,04,27,7.30
2004,04,08,04,28,7.20
2004,04,08,04,29,7.10
2004,04,08,04,30,7.10
2004,04,08,04,31,7.00
2004,04,08,04,32,7.10
2004,04,08,04,33,7.10
2004,04,08,04,34,7.20
2004,04,08,04,35,7.20
2004,04,08,04,36,7.20
2004,04,08,04,37,7.20
2004,04,08,04,38,7.10
2004,04,08,04,39,7.00
2004,04,08,04,40,6.90
2004,04,08,04,41,6.90
2004,04,08,04,42,6.90
2004,04,08,04,43,7.00
2004,04,08,04,44,7.00
2004,04,08,04,45,7.10
2004,04,08,04,46,7.10
2004,04,08,04,47,7.10
2004,04,08,04,48,7.10
2004,04,08,04,49,7.00
2004,04,08,04,50,6.90
2004,04,08,04,51,6.90
2004,04,08,04,52,6.80
2004,04,08,04,53,6.80
2004,04,08,04,54,6.80
2004,04,08,04,55,6.60
2004,04,08,04,56,6.50
2004,04,08,04,57,6.40
2004,04,08,04,58,6.40
2004,04,08,04,59,6.40
2004,04,08,05,00,6.50
2004,04,08,05,01,6.60
2004,04,08,05,02,6.70
2004,04,08,05,03,6.70
2004,04,08,05,04,6.70
2004,04,08,05,05,6.70
2004,04,08,05,06,6.70
2004,04,08,05,07,6.70
2004,04,08,05,08,6.70
2004,04,08,05,09,6.80
2004,04,08,05,10,6.80
2004,04,08,05,11,6.80
2004,04,08,05,12,6.80
2004,04,08,05,13,6.70
2004,04,08,05,14,6.60
2004,04,08,05,15,6.60
2004,04,08,05,16,6.60
2004,04,08,05,17,6.60
2004,04,08,05,18,6.60
2004,04,08,05,19,6.60
2004,04,08,05,20,6.70
2004,04,08,05,21,6.70
2004,04,08,05,22,6.80
2004,04,08,05,23,6.80
2004,04,08,05,24,6.80
2004,04,08,05,25,6.90
2004,04,08,05,26,6.90
2004,04,08,05,27,6.90
2004,04,08,05,28,6.80
2004,04,08,05,29,6.80
2004,04,08,05,30,6.80
2004,04,08,05,31,6.80
2004,04,08,05,32,6.80
2004,04,08,05,33,6.80
2004,04,08,05,34,6.80
2004,04,08,05,35,6.70
2004,04,08,05,36,6.60
2004,04,08,05,37,6.80
2004,04,08,05,38,6.80
2004,04,08,05,39,6.80
2004,04,08,05,40,6.80
2004,04,08,05,41,6.80
2004,04,08,05,42,6.80
2004,04,08,05,43,6.70
2004,04,08,05,44,6.60
2004,04,08,05,45,6.70
2004,04,08,05,46,6.70
2004,04,08,05,47,6.60
2004,04,08,05,48,6.50
2004,04,08,05,49,6.60
2004,04,08,05,50,6.60
2004,04,08,05,51,6.70
2004,04,08,05,52,6.70
2004,04,08,05,53,6.70
2004,04,08,05,54,6.60
2004,04,08,05,55,6.60
2004,04,08,05,56,6.60
2004,04,08,05,57,6.60
2004,04,08,05,58,6.60
2004,04,08,05,59,6.60
2004,04,08,06,00,6.50
2004,04,08,06,01,6.40
2004,04,08,06,02,6.30
2004,04,08,06,03,6.20
2004,04,08,06,04,6.10
2004,04,08,06,05,6.00
2004,04,08,06,06,6.00
2004,04,08,06,07,6.00
2004,04,08,06,08,5.90
2004,04,08,06,09,6.00
2004,04,08,06,10,6.00
2004,04,08,06,11,6.00
2004,04,08,06,12,6.00
2004,04,08,06,13,6.10
2004,04,08,06,14,6.20
2004,04,08,06,15,6.20
2004,04,08,06,16,6.20
2004,04,08,06,17,6.20
2004,04,08,06,18,6.20
2004,04,08,06,19,6.20
2004,04,08,06,20,6.20
2004,04,08,06,21,6.20
2004,04,08,06,22,6.20
2004,04,08,06,23,6.10
2004,04,08,06,24,6.10
2004,04,08,06,25,6.10
2004,04,08,06,26,6.00
2004,04,08,06,27,6.00
2004,04,08,06,28,6.00
2004,04,08,06,29,6.00
2004,04,08,06,30,6.00
2004,04,08,06,31,5.90
2004,04,08,06,32,6.00
2004,04,08,06,33,6.10
2004,04,08,06,34,6.20
2004,04,08,06,35,6.20
2004,04,08,06,36,6.20
2004,04,08,06,37,6.20
2004,04,08,06,38,6.20
2004,04,08,06,39,6.20
2004,04,08,06,40,6.30
2004,04,08,06,41,6.30
2004,04,08,06,42,6.40
2004,04,08,06,43,6.40
2004,04,08,06,44,6.40
2004,04,08,06,45,6.20
2004,04,08,06,46,6.20
2004,04,08,06,47,6.20
2004,04,08,06,48,6.20
2004,04,08,06,49,6.40
2004,04,08,06,50,6.40
2004,04,08,06,51,6.40
2004,04,08,06,52,6.30
2004,04,08,06,53,6.30
2004,04,08,06,54,6.30
2004,04,08,06,55,6.20
2004,04,08,06,56,6.20
2004,04,08,06,57,6.20
2004,04,08,06,58,6.20
2004,04,08,06,59,6.20
2004,04,08,07,00,6.30
2004,04,08,07,01,6.30
2004,04,08,07,02,6.40
2004,04,08,07,03,6.40
2004,04,08,07,04,6.50
2004,04,08,07,05,6.60
2004,04,08,07,06,6.70
2004,04,08,07,07,6.70
2004,04,08,07,08,6.70
2004,04,08,07,09,6.80
2004,04,08,07,10,6.80
2004,04,08,07,11,6.90
2004,04,08,07,12,7.00
2004,04,08,07,13,7.10
2004,04,08,07,14,7.20
2004,04,08,07,15,7.20
2004,04,08,07,16,7.20
2004,04,08,07,17,7.20
2004,04,08,07,18,7.30
2004,04,08,07,19,7.30
2004,04,08,07,20,7.40
2004,04,08,07,21,7.50
2004,04,08,07,22,7.50
2004,04,08,07,23,7.50
2004,04,08,07,24,7.70
2004,04,08,07,25,7.80
2004,04,08,07,26,7.90
2004,04,08,07,27,8.10
2004,04,08,07,28,8.20
2004,04,08,07,29,8.30
2004,04,08,07,30,8.40
2004,04,08,07,31,8.40
2004,04,08,07,32,8.50
2004,04,08,07,33,8.60
2004,04,08,07,34,8.70
2004,04,08,07,35,8.80
2004,04,08,07,36,8.80
2004,04,08,07,37,8.90
2004,04,08,07,38,9.00
2004,04,08,07,39,9.20
2004,04,08,07,40,9.30
2004,04,08,07,41,9.40
2004,04,08,07,42,9.40
2004,04,08,07,43,9.50
2004,04,08,07,44,9.50
2004,04,08,07,45,9.50
2004,04,08,07,46,9.60
2004,04,08,07,47,9.60
2004,04,08,07,48,9.70
2004,04,08,07,49,9.70
2004,04,08,07,50,9.70
2004,04,08,07,51,9.70
2004,04,08,07,52,9.80
2004,04,08,07,53,9.90
2004,04,08,07,54,10.00
2004,04,08,07,55,10.10
2004,04,08,07,56,10.20
2004,04,08,07,57,10.30
2004,04,08,07,58,10.40
2004,04,08,07,59,10.60
2004,04,08,08,00,10.60
2004,04,08,08,01,10.70
2004,04,08,08,02,10.70
2004,04,08,08,03,10.80
2004,04,08,08,04,10.80
2004,04,08,08,05,11.00
2004,04,08,08,06,11.10
2004,04,08,08,07,11.20
2004,04,08,08,08,11.20
2004,04,08,08,09,11.10
2004,04,08,08,10,11.10
2004,04,08,08,11,11.10
2004,04,08,08,12,11.00
2004,04,08,08,13,11.00
2004,04,08,08,14,11.00
2004,04,08,08,15,10.90
2004,04,08,08,16,11.00
2004,04,08,08,17,10.90
2004,04,08,08,18,10.90
2004,04,08,08,19,10.80
2004,04,08,08,20,10.80
2004,04,08,08,21,10.70
2004,04,08,08,22,10.70
2004,04,08,08,23,10.70
2004,04,08,08,24,10.60
2004,04,08,08,25,10.60
2004,04,08,08,26,10.60
2004,04,08,08,27,10.60
2004,04,08,08,28,10.60
2004,04,08,08,29,10.40
2004,04,08,08,30,10.40
2004,04,08,08,31,10.40
2004,04,08,08,32,10.40
2004,04,08,08,33,10.40
2004,04,08,08,34,10.40
2004,04,08,08,35,10.60
2004,04,08,08,36,10.60
2004,04,08,08,37,10.60
2004,04,08,08,38,10.60
2004,04,08,08,39,10.60
2004,04,08,08,40,10.60
2004,04,08,08,41,10.60
2004,04,08,08,42,10.60
2004,04,08,08,43,10.60
2004,04,08,08,44,10.60
2004,04,08,08,45,10.60
2004,04,08,08,46,10.60
2004,04,08,08,47,10.60
2004,04,08,08,48,10.60
2004,04,08,08,49,10.60
2004,04,08,08,50,10.60
2004,04,08,08,51,10.60
2004,04,08,08,52,10.60
2004,04,08,08,53,10.60
2004,04,08,08,54,10.60
2004,04,08,08,55,10.60
2004,04,08,08,56,10.60
2004,04,08,08,57,10.60
2004,04,08,08,58,10.50
2004,04,08,08,59,10.40
2004,04,08,09,00,10.40
2004,04,08,09,01,10.40
2004,04,08,09,02,10.50
2004,04,08,09,03,10.60
2004,04,08,09,04,10.50
2004,04,08,09,05,10.60
2004,04,08,09,06,10.60
2004,04,08,09,07,10.60
2004,04,08,09,08,10.50
2004,04,08,09,09,10.50
2004,04,08,09,10,10.60
2004,04,08,09,11,10.60
2004,04,08,09,12,10.60
2004,04,08,09,13,10.70
2004,04,08,09,14,10.80
2004,04,08,09,15,10.80
2004,04,08,09,16,10.80
2004,04,08,09,17,10.90
2004,04,08,09,18,10.90
2004,04,08,09,19,10.90
2004,04,08,09,20,10.90
2004,04,08,09,21,10.90
2004,04,08,09,22,11.00
2004,04,08,09,23,11.10
2004,04,08,09,24,11.10
2004,04,08,09,25,11.20
2004,04,08,09,26,11.20
2004,04,08,09,27,11.30
2004,04,08,09,28,11.40
2004,04,08,09,29,11.40
2004,04,08,09,30,11.40
2004,04,08,09,31,11.40
2004,04,08,09,32,11.40
2004,04,08,09,33,11.40
2004,04,08,09,34,11.40
2004,04,08,09,35,11.40
2004,04,08,09,36,11.50
2004,04,08,09,37,11.60
2004,04,08,09,38,11.70
2004,04,08,09,39,11.70
2004,04,08,09,40,11.60
2004,04,08,09,41,11.60
2004,04,08,09,42,11.70
2004,04,08,09,43,11.70
2004,04,08,09,44,11.70
2004,04,08,09,45,11.80
2004,04,08,09,46,11.80
2004,04,08,09,47,11.80
2004,04,08,09,48,11.90
2004,04,08,09,49,11.90
2004,04,08,09,50,12.00
2004,04,08,09,51,12.10
2004,04,08,09,52,12.10
2004,04,08,09,53,12.10
2004,04,08,09,54,12.10
2004,04,08,09,55,12.20
2004,04,08,09,56,12.20
2004,04,08,09,57,12.20
2004,04,08,09,58,12.20
2004,04,08,09,59,12.20
2004,04,08,10,00,12.20
2004,04,08,10,01,12.30
2004,04,08,10,02,12.30
2004,04,08,10,03,12.30
2004,04,08,10,04,12.30
2004,04,08,10,05,12.30
2004,04,08,10,06,12.40
2004,04,08,10,07,12.40
2004,04,08,10,08,12.40
2004,04,08,10,09,12.40
2004,04,08,10,10,12.40
2004,04,08,10,11,12.50
2004,04,08,10,12,12.50
2004,04,08,10,13,12.50
2004,04,08,10,14,12.50
2004,04,08,10,15,12.50
2004,04,08,10,16,12.40
2004,04,08,10,17,12.40
2004,04,08,10,18,12.50
2004,04,08,10,19,12.40
2004,04,08,10,20,12.40
2004,04,08,10,21,12.30
2004,04,08,10,22,12.20
2004,04,08,10,23,12.20
2004,04,08,10,24,12.10
2004,04,08,10,25,12.10
2004,04,08,10,26,12.20
2004,04,08,10,27,12.20
2004,04,08,10,28,12.30
2004,04,08,10,29,12.30
2004,04,08,10,30,12.10
2004,04,08,10,31,12.20
2004,04,08,10,32,12.30
2004,04,08,10,33,12.40
2004,04,08,10,34,12.40
2004,04,08,10,35,12.40
2004,04,08,10,36,12.50
2004,04,08,10,37,12.40
2004,04,08,10,38,12.40
2004,04,08,10,39,12.40
2004,04,08,10,40,12.30
2004,04,08,10,41,12.40
2004,04,08,10,42,12.50
2004,04,08,10,43,12.60
2004,04,08,10,44,12.70
2004,04,08,10,45,12.80
2004,04,08,10,46,12.80
2004,04,08,10,47,12.80
2004,04,08,10,48,12.80
2004,04,08,10,49,12.90
2004,04,08,10,50,12.90
2004,04,08,10,51,12.80
2004,04,08,10,52,12.60
2004,04,08,10,53,12.30
2004,04,08,10,54,12.20
2004,04,08,10,55,12.10
2004,04,08,10,56,12.10
2004,04,08,10,57,12.10
2004,04,08,10,58,12.10
2004,04,08,10,59,12.10
2004,04,08,11,00,12.20
2004,04,08,11,01,12.20
2004,04,08,11,02,12.30
2004,04,08,11,03,12.20
2004,04,08,11,04,12.30
2004,04,08,11,05,12.30
2004,04,08,11,06,12.10
2004,04,08,11,07,11.90
2004,04,08,11,08,11.90
2004,04,08,11,09,11.90
2004,04,08,11,10,11.90
2004,04,08,11,11,12.10
2004,04,08,11,12,12.20
2004,04,08,11,13,12.40
2004,04,08,11,14,12.50
2004,04,08,11,15,12.60
2004,04,08,11,16,12.70
2004,04,08,11,17,12.70
2004,04,08,11,18,12.70
2004,04,08,11,19,12.70
2004,04,08,11,20,12.70
2004,04,08,11,21,12.70
2004,04,08,11,22,12.60
2004,04,08,11,23,12.60
2004,04,08,11,24,12.80
2004,04,08,11,25,12.70
2004,04,08,11,26,12.60
2004,04,08,11,27,12.60
2004,04,08,11,28,12.70
2004,04,08,11,29,12.60
2004,04,08,11,30,12.50
2004,04,08,11,31,12.40
2004,04,08,11,32,12.30
2004,04,08,11,33,12.30
2004,04,08,11,34,12.40
2004,04,08,11,35,12.50
2004,04,08,11,36,12.60
2004,04,08,11,37,12.70
2004,04,08,11,38,12.70
2004,04,08,11,39,12.80
2004,04,08,11,40,12.80
2004,04,08,11,41,12.80
2004,04,08,11,42,12.80
2004,04,08,11,43,12.80
2004,04,08,11,44,12.80
2004,04,08,11,45,12.80
2004,04,08,11,46,12.80
2004,04,08,11,47,12.80
2004,04,08,11,48,12.80
2004,04,08,11,49,12.90
2004,04,08,11,50,12.90
2004,04,08,11,51,13.00
2004,04,08,11,52,13.00
2004,04,08,11,53,12.80
2004,04,08,11,54,12.70
2004,04,08,11,55,12.70
2004,04,08,11,56,12.60
2004,04,08,11,57,12.70
2004,04,08,11,58,12.60
2004,04,08,11,59,12.70
2004,04,08,12,00,12.80
2004,04,08,12,01,12.80
2004,04,08,12,02,12.90
2004,04,08,12,03,13.10
2004,04,08,12,04,13.20
2004,04,08,12,05,13.30
2004,04,08,12,06,13.40
2004,04,08,12,07,13.40
2004,04,08,12,08,13.30
2004,04,08,12,09,13.10
2004,04,08,12,10,12.90
2004,04,08,12,11,12.70
2004,04,08,12,12,12.60
2004,04,08,12,13,12.60
2004,04,08,12,14,12.40
2004,04,08,12,15,12.50
2004,04,08,12,16,12.50
2004,04,08,12,17,12.80
2004,04,08,12,18,12.80
2004,04,08,12,19,12.90
2004,04,08,12,20,13.00
2004,04,08,12,21,12.80
2004,04,08,12,22,12.60
2004,04,08,12,23,12.60
2004,04,08,12,24,12.50
2004,04,08,12,25,12.40
2004,04,08,12,26,12.40
2004,04,08,12,27,12.40
2004,04,08,12,28,12.40
2004,04,08,12,29,12.50
2004,04,08,12,30,12.60
2004,04,08,12,31,12.60
2004,04,08,12,32,12.50
2004,04,08,12,33,12.40
2004,04,08,12,34,12.20
2004,04,08,12,35,12.20
2004,04,08,12,36,12.10
2004,04,08,12,37,12.20
2004,04,08,12,38,12.20
2004,04,08,12,39,12.30
2004,04,08,12,40,12.30
2004,04,08,12,41,12.30
2004,04,08,12,42,12.40
2004,04,08,12,43,12.60
2004,04,08,12,44,12.60
2004,04,08,12,45,12.80
2004,04,08,12,46,13.00
2004,04,08,12,47,13.10
2004,04,08,12,48,13.10
2004,04,08,12,49,13.20
2004,04,08,12,50,13.20
2004,04,08,12,51,13.20
2004,04,08,12,52,13.30
2004,04,08,12,53,13.40
2004,04,08,12,54,13.40
2004,04,08,12,55,13.60
2004,04,08,12,56,13.60
2004,04,08,12,57,13.60
2004,04,08,12,58,13.70
2004,04,08,12,59,13.80
2004,04,08,13,00,13.80
2004,04,08,13,01,13.80
2004,04,08,13,02,13.80
2004,04,08,13,03,13.60
2004,04,08,13,04,13.50
2004,04,08,13,05,13.40
2004,04,08,13,06,13.40
2004,04,08,13,07,13.40
2004,04,08,13,08,13.30
2004,04,08,13,09,13.30
2004,04,08,13,10,13.30
2004,04,08,13,11,13.30
2004,04,08,13,12,13.20
2004,04,08,13,13,13.20
2004,04,08,13,14,13.30
2004,04,08,13,15,13.30
2004,04,08,13,16,13.30
2004,04,08,13,17,13.30
2004,04,08,13,18,13.20
2004,04,08,13,19,13.30
2004,04,08,13,20,13.50
2004,04,08,13,21,13.60
2004,04,08,13,22,13.50
2004,04,08,13,23,13.40
2004,04,08,13,24,13.20
2004,04,08,13,25,13.20
2004,04,08,13,26,13.20
2004,04,08,13,27,13.40
2004,04,08,13,28,13.60
2004,04,08,13,29,13.70
2004,04,08,13,30,13.70
2004,04,08,13,31,13.60
2004,04,08,13,32,13.60
2004,04,08,13,33,13.50
2004,04,08,13,34,13.50
2004,04,08,13,35,13.60
2004,04,08,13,36,13.50
2004,04,08,13,37,13.60
2004,04,08,13,38,13.70
2004,04,08,13,39,13.60
2004,04,08,13,40,13.60
2004,04,08,13,41,13.70
2004,04,08,13,42,13.70
2004,04,08,13,43,13.70
2004,04,08,13,44,13.60
2004,04,08,13,45,13.60
2004,04,08,13,46,13.60
2004,04,08,13,47,13.60
2004,04,08,13,48,13.80
2004,04,08,13,49,13.80
2004,04,08,13,50,13.90
2004,04,08,13,51,13.80
2004,04,08,13,52,13.90
2004,04,08,13,53,13.80
2004,04,08,13,54,13.80
2004,04,08,13,55,13.70
2004,04,08,13,56,13.70
2004,04,08,13,57,13.70
2004,04,08,13,58,13.80
2004,04,08,13,59,13.90
2004,04,08,14,00,13.90
2004,04,08,14,01,14.00
2004,04,08,14,02,14.00
2004,04,08,14,03,13.90
2004,04,08,14,04,14.00
2004,04,08,14,05,14.00
2004,04,08,14,06,14.00
2004,04,08,14,07,14.00
2004,04,08,14,08,14.00
2004,04,08,14,09,14.00
2004,04,08,14,10,14.10
2004,04,08,14,11,14.00
2004,04,08,14,12,14.00
2004,04,08,14,13,14.10
2004,04,08,14,14,14.10
2004,04,08,14,15,14.20
2004,04,08,14,16,14.20
2004,04,08,14,17,14.10
2004,04,08,14,18,14.10
2004,04,08,14,19,14.20
2004,04,08,14,20,14.20
2004,04,08,14,21,14.20
2004,04,08,14,22,14.40
2004,04,08,14,23,14.40
2004,04,08,14,24,14.40
2004,04,08,14,25,14.40
2004,04,08,14,26,14.30
2004,04,08,14,27,14.40
2004,04,08,14,28,14.50
2004,04,08,14,29,14.40
2004,04,08,14,30,14.40
2004,04,08,14,31,14.40
2004,04,08,14,32,14.40
2004,04,08,14,33,14.50
2004,04,08,14,34,14.60
2004,04,08,14,35,14.60
2004,04,08,14,36,14.70
2004,04,08,14,37,14.70
2004,04,08,14,38,14.70
2004,04,08,14,39,14.70
2004,04,08,14,40,14.70
2004,04,08,14,41,14.60
2004,04,08,14,42,14.60
2004,04,08,14,43,14.60
2004,04,08,14,44,14.60
2004,04,08,14,45,14.50
2004,04,08,14,46,14.40
2004,04,08,14,47,14.30
2004,04,08,14,48,14.30
2004,04,08,14,49,14.40
2004,04,08,14,50,14.50
2004,04,08,14,51,14.50
2004,04,08,14,52,14.50
2004,04,08,14,53,14.40
2004,04,08,14,54,14.40
2004,04,08,14,55,14.50
2004,04,08,14,56,14.60
2004,04,08,14,57,14.60
2004,04,08,14,58,14.60
2004,04,08,14,59,14.70
2004,04,08,15,00,14.80
2004,04,08,15,01,14.80
2004,04,08,15,02,14.90
2004,04,08,15,03,15.00
2004,04,08,15,04,15.10
2004,04,08,15,05,15.20
2004,04,08,15,06,15.10
2004,04,08,15,07,15.10
2004,04,08,15,08,15.00
2004,04,08,15,09,15.00
2004,04,08,15,10,14.80
2004,04,08,15,11,14.80
2004,04,08,15,12,14.70
2004,04,08,15,13,14.60
2004,04,08,15,14,14.30
2004,04,08,15,15,14.20
2004,04,08,15,16,14.20
2004,04,08,15,17,14.20
2004,04,08,15,18,14.00
2004,04,08,15,19,14.00
2004,04,08,15,20,14.00
2004,04,08,15,21,14.10
2004,04,08,15,22,14.20
2004,04,08,15,23,14.20
2004,04,08,15,24,14.20
2004,04,08,15,25,14.20
2004,04,08,15,26,14.20
2004,04,08,15,27,14.20
2004,04,08,15,28,14.20
2004,04,08,15,29,14.20
2004,04,08,15,30,14.10
2004,04,08,15,31,14.10
2004,04,08,15,32,14.10
2004,04,08,15,33,14.30
2004,04,08,15,34,14.50
2004,04,08,15,35,14.60
2004,04,08,15,36,15.00
2004,04,08,15,37,15.30
2004,04,08,15,38,15.60
2004,04,08,15,39,15.70
2004,04,08,15,40,15.80
2004,04,08,15,41,15.90
2004,04,08,15,42,16.10
2004,04,08,15,43,16.20
2004,04,08,15,44,16.40
2004,04,08,15,45,16.50
2004,04,08,15,46,16.50
2004,04,08,15,47,16.60
2004,04,08,15,48,16.70
2004,04,08,15,49,16.70
2004,04,08,15,50,16.70
2004,04,08,15,51,16.60
2004,04,08,15,52,16.40
2004,04,08,15,53,16.50
2004,04,08,15,54,16.70
2004,04,08,15,55,16.90
2004,04,08,15,56,17.10
2004,04,08,15,57,17.10
2004,04,08,15,58,17.20
2004,04,08,15,59,17.20
2004,04,08,16,00,17.20
2004,04,08,16,01,17.10
2004,04,08,16,02,17.10
2004,04,08,16,03,17.00
2004,04,08,16,04,17.10
2004,04,08,16,05,17.10
2004,04,08,16,06,17.10
2004,04,08,16,07,17.20
2004,04,08,16,08,17.00
2004,04,08,16,09,16.90
2004,04,08,16,10,16.80
2004,04,08,16,11,16.80
2004,04,08,16,12,16.80
2004,04,08,16,13,16.80
2004,04,08,16,14,16.90
2004,04,08,16,15,16.80
2004,04,08,16,16,16.70
2004,04,08,16,17,16.70
2004,04,08,16,18,16.70
2004,04,08,16,19,16.70
2004,04,08,16,20,16.60
2004,04,08,16,21,16.60
2004,04,08,16,22,16.60
2004,04,08,16,23,16.70
2004,04,08,16,24,16.70
2004,04,08,16,25,16.80
2004,04,08,16,26,16.90
2004,04,08,16,27,16.90
2004,04,08,16,28,16.90
2004,04,08,16,29,16.90
2004,04,08,16,30,16.90
2004,04,08,16,31,16.90
2004,04,08,16,32,16.90
2004,04,08,16,33,17.00
2004,04,08,16,34,17.00
2004,04,08,16,35,17.20
2004,04,08,16,36,17.30
2004,04,08,16,37,17.40
2004,04,08,16,38,17.40
2004,04,08,16,39,17.30
2004,04,08,16,40,17.00
2004,04,08,16,41,16.70
2004,04,08,16,42,16.50
2004,04,08,16,43,16.40
2004,04,08,16,44,16.30
2004,04,08,16,45,16.20
2004,04,08,16,46,16.10
2004,04,08,16,47,16.10
2004,04,08,16,48,16.10
2004,04,08,16,49,16.00
2004,04,08,16,50,15.90
2004,04,08,16,51,15.80
2004,04,08,16,52,15.80
2004,04,08,16,53,15.70
2004,04,08,16,54,15.60
2004,04,08,16,55,15.50
2004,04,08,16,56,15.50
2004,04,08,16,57,15.50
2004,04,08,16,58,15.40
2004,04,08,16,59,15.40
2004,04,08,17,00,15.40
2004,04,08,17,01,15.40
2004,04,08,17,02,15.40
2004,04,08,17,03,15.60
2004,04,08,17,04,15.50
2004,04,08,17,05,15.50
2004,04,08,17,06,15.50
2004,04,08,17,07,15.50
2004,04,08,17,08,15.50
2004,04,08,17,09,15.50
2004,04,08,17,10,15.50
2004,04,08,17,11,15.50
2004,04,08,17,12,15.50
2004,04,08,17,13,15.40
2004,04,08,17,14,15.40
2004,04,08,17,15,15.40
2004,04,08,17,16,15.50
2004,04,08,17,17,15.40
2004,04,08,17,18,15.30
2004,04,08,17,19,15.10
2004,04,08,17,20,15.10
2004,04,08,17,21,15.20
2004,04,08,17,22,15.20
2004,04,08,17,23,15.30
2004,04,08,17,24,15.30
2004,04,08,17,25,15.40
2004,04,08,17,26,15.40
2004,04,08,17,27,15.30
2004,04,08,17,28,15.30
2004,04,08,17,29,15.40
2004,04,08,17,30,15.50
2004,04,08,17,31,15.60
2004,04,08,17,32,15.60
2004,04,08,17,33,15.50
2004,04,08,17,34,15.40
2004,04,08,17,35,15.50
2004,04,08,17,36,15.50
2004,04,08,17,37,15.50
2004,04,08,17,38,15.60
2004,04,08,17,39,15.60
2004,04,08,17,40,15.70